Flag for U.S.A. Weather past 2 weeks in Seattle, Washington, U.S.A.

Now
66 °F

Sunny.


Feels Like: 66 °F
Forecast: 65 / 87 °F
Wind: 5 mph from East

Location: Seattle Boeing Field

Current Time: Jul 4, 2015 at 7:25:58 AM

Latest Report: Jul 4, 2015 at 6:53 AM


Visibility: 10 mi

Pressure: 29.89 "Hg

Humidity: 63%

Dew point: 53 °F

Location of SeattleLocation

Historic Weather in Seattle — Graph

°F

Seattle temperature yesterday

Maximum temperature yesterday: 92 °F (at 3:53 PM)
Minimum temperature yesterday: 68 °F (at 4:53 AM)
Average temperature yesterday: 80 °F

Past Weeks' High & Low Weather Summary

 TemperatureHumidityPressure
High92 °F (Jun 27, 4:53 PM)81% (Jun 30, 3:53 AM)30.16 "Hg (Jun 30, 3:53 AM)
Low56 °F (Jun 23, 5:53 AM)19% (Jun 23, 3:53 PM)29.82 "Hg (Jul 3, 7:53 PM)
Average74 °F48%30.01 "Hg
* Reported Jun 19 5:53 AM — Jul 4 5:53 AM, Seattle, Weather by CustomWeather, © 2015

Note: Actual official high and low records may vary slightly from our data, if they occured in-between our weather recording intervals... More about our weather records

Advertising

Seattle weather history for previous 24 hours

 ConditionsComfort  
Time TempWeatherWind HumidityBarometerVisibility
5:53 AM
Sat, Jul 4
63 °FClear.5 mph70%29.88 "Hg10 mi
4:53 AM65 °FClear.6 mph68%29.87 "Hg10 mi
3:53 AM68 °FClear.No wind61%29.87 "Hg10 mi
2:53 AM69 °FClear.3 mph59%29.88 "Hg10 mi
1:53 AM72 °FClear.No wind53%29.87 "Hg10 mi
12:53 AM72 °FClear.No wind52%29.87 "Hg10 mi
11:53 PM
Fri, Jul 3
77 °FClear.5 mph45%29.86 "Hg10 mi
10:53 PM79 °FClear.3 mph39%29.85 "Hg10 mi
9:53 PM81 °FSunny.3 mph35%29.85 "Hg10 mi
8:53 PM84 °FSunny.5 mph31%29.83 "Hg10 mi
7:53 PM87 °FSunny.6 mph30%29.82 "Hg10 mi
6:53 PM91 °FSunny.7 mph26%29.82 "Hg10 mi
5:53 PM92 °FSunny.9 mph26%29.83 "Hg10 mi
4:53 PM92 °FSunny.6 mph26%29.85 "Hg10 mi
3:53 PM92 °FSunny.7 mph26%29.86 "Hg10 mi
2:53 PM91 °FSunny.3 mph24%29.89 "Hg10 mi
1:53 PM89 °FSunny.6 mph27%29.91 "Hg10 mi
12:53 PM87 °FSunny.9 mph32%29.92 "Hg10 mi
11:53 AM84 °FSunny.8 mph36%29.94 "Hg10 mi
10:53 AM80 °FSunny.6 mph42%29.94 "Hg10 mi
9:53 AM78 °FSunny.6 mph43%29.95 "Hg10 mi
8:53 AM75 °FSunny.3 mph47%29.96 "Hg10 mi
7:53 AM72 °FSunny.3 mph53%29.96 "Hg10 mi
Weather by CustomWeather, © 2015

See weather overviewHow to use our weather pages